Tracking 19293 objects as of 21-Nov-2018
HD Live streaming from Space Station
objects crossing your sky now

COSMOS 1748

Track COSMOS 1748 now!
10-day predictions
COSMOS 1748 is classified as:


NORAD ID: 16758
Int'l Code: 1986-042A
Perigee: 1,459.6 km
Apogee: 1,477.5 km
Inclination: 74.0 °
Period: 115.1 minutes
Semi major axis: 7839 km
RCS: 0.6965 m2 (medium)
Launch date: June 6, 1986
Source: Commonwealth of Independent States (former USSR) (CIS)
Launch site: PLESETSK MISSILE AND SPACE COMPLEX (PKMTR)
aabbcc
Your satellite tracking list
Your tracking list is empty




NASA's NSSDC Master Catalog

Two Line Element Set (TLE):
1 16758U 86042A   18324.64533436 -.00000003 +00000-0 +87939-4 0  9993
2 16758 074.0206 016.7963 0011438 291.1510 185.4484 12.50742651482041
Source of the keplerian elements: AFSPC